Weather History for MROC - November, 2011

Change the Weather History Date:

Tuesday, November 15, 2011

  Actual Average Record
Temperature  
Mean Temperature 69 °F -  
Max Temperature 75 °F 78 °F 86 °F (1997)
Min Temperature 63 °F 64 °F 62 °F (1997)
Cooling Degree Days 4    
Growing Degree Days 19 (Base 50)    
Moisture  
Dew Point 65 °F    
Average Humidity 88    
Maximum Humidity 100    
Minimum Humidity 73    
Precipitation  
Precipitation 0.31 in 0.11 in - ()
Sea Level Pressure  
Sea Level Pressure 29.94 in    
Wind  
Wind Speed 6 mph ()    
Max Wind Speed 109 mph    
Max Gust Speed -    
Visibility 4.7 miles    
Events Fog , Rain    
Averages and records for this station are not official NWS values.
T = Trace of Precipitation, MM = Missing Value Source: Averaged Metar Reports

Daily Weather History Graph

Daily Weather History Graph

Search for Another Location

Airport or City:

Trip Planner

Search our weather history database for the weather conditions in past years. The results will help you decide how hot, cold, wet, or windy it might be!

Date:

Astronomy

Nov. 15, 2011 Rise Set
Actual Time 5:31 AM CST 5:11 PM CST
Civil Twilight 5:09 AM CST 5:33 PM CST
Nautical Twilight 4:43 AM CST 5:59 PM CST
Astronomical Twilight 4:18 AM CST 6:24 PM CST
Moon 9:21 PM CST (11/15) 9:24 AM CST (11/15)
Length of Visible Light 12h 24m
Length of Day
11h 40m
Waning Gibbous, 79% of the Moon is Illuminated
Nov 15
Waning Gibbous
Nov 18
Last Quarter
Nov 25
New
Dec 2
First Quarter
Dec 10
Full

Hourly Weather History & Observations

Time (CST) Temp. Dew Point Humidity Pressure Visibility Wind Dir Wind Speed Gust Speed Precip Events Conditions
12:00 AM 66.2 °F 66.2 °F 100% 29.95 in 0.7 mi WNW 2.3 mph - N/A   Mostly Cloudy
12:20 AM 66.2 °F 66.2 °F 100% 29.95 in 1.9 mi WNW 1.2 mph - N/A   Mostly Cloudy
1:00 AM 66.2 °F 66.2 °F 100% 29.94 in 3.1 mi NW 3.5 mph - N/A   Mostly Cloudy
2:00 AM 66.2 °F 64.4 °F 94% 29.93 in 5.0 mi NE 2.3 mph - N/A Fog Fog
3:00 AM 65 °F 63 °F 92%  in 9 mi ENE 2.3 mph - -   Overcast
3:00 AM 66.2 °F 62.6 °F 88% 29.93 in 6.2 mi ENE 2.3 mph - N/A   Mostly Cloudy
4:00 AM 64.4 °F 62.6 °F 94% 29.92 in - ENE 3.5 mph - N/A   Clear
5:00 AM 64.4 °F 60.8 °F 88% 29.94 in 6.2 mi ENE 2.3 mph - N/A   Mostly Cloudy
6:00 AM 66 °F 61 °F 80% 29.87 in 12 mi ENE 4.6 mph - -   Partly Cloudy
6:00 AM 66.2 °F 60.8 °F 83% 29.95 in - ENE 4.6 mph - N/A   Clear
7:00 AM 69.8 °F 62.6 °F 78% 29.97 in 6.2 mi NE 3.5 mph - N/A   Scattered Clouds
8:00 AM 69.8 °F 64.4 °F 83% 29.99 in 6.2 mi SSW 3.5 mph - N/A   Mostly Cloudy
9:00 AM 71.6 °F 64.4 °F 78% 29.99 in - West 6.9 mph - N/A   Clear
10:00 AM 73.4 °F 66.2 °F 78% 29.98 in 6.2 mi WSW 6.9 mph - N/A   Mostly Cloudy
11:00 AM 73.4 °F 66.2 °F 78% 29.98 in 6.2 mi West 8.1 mph - N/A   Mostly Cloudy
12:00 PM 75.2 °F 66.2 °F 73% 29.95 in 6.2 mi SW 8.1 mph - N/A   Mostly Cloudy
1:00 PM 75.2 °F 68.0 °F 78% 29.90 in 6.2 mi West 10.4 mph - N/A   Mostly Cloudy
2:00 PM 73.4 °F 68.0 °F 83% 29.89 in 6.2 mi WSW 11.5 mph - N/A   Mostly Cloudy
2:13 PM 73.4 °F 66.2 °F 78% 29.88 in 5.0 mi SW 11.5 mph - N/A   Mostly Cloudy
3:00 PM 71.6 °F 66.2 °F 83% 29.86 in 6.2 mi WSW 12.7 mph - N/A Fog Mostly Cloudy
4:00 PM 68.0 °F 66.2 °F 94% 29.89 in 4.3 mi WSW 6.9 mph - N/A Rain Rain
5:00 PM 68.0 °F 66.2 °F 94% 29.92 in 3.1 mi SW 4.6 mph - N/A Rain Light Rain
5:15 PM 68.0 °F 66.2 °F 94% 29.92 in 3.1 mi SSW 5.8 mph - N/A Rain Rain
6:00 PM - - 182% 29.85 in 2 mi SW 109.3 mph - - Rain Light Rain
6:00 PM 68.0 °F 66.2 °F 94% 29.93 in 1.9 mi SW 6.9 mph - N/A Rain Light Rain
7:00 PM 68.0 °F 66.2 °F 94% 29.96 in 1.9 mi West 9.2 mph - N/A Rain Light Rain
8:00 PM 68.0 °F 66.2 °F 94% 29.98 in 3.1 mi West 6.9 mph - N/A Rain Light Rain
9:00 PM 68.0 °F 66.2 °F 94% 29.98 in 1.9 mi SSW 2.3 mph - N/A   Scattered Clouds
10:00 PM 68.0 °F 66.2 °F 94% 29.99 in 2.5 mi Calm Calm - N/A   Light Drizzle
11:00 PM 68.0 °F 66.2 °F 94% 29.98 in 3.1 mi Calm Calm - N/A   Mostly Cloudy